Regional Weather Roundup
Issued by NWS Green Bay, WI

Home | Current Version | Previous Version | Graphics & Text | Print | Product List | Glossary Off
Versions: 1 2 3 4 5 6 7 8 9 10 11 12 13 14 15 16 17 18 19 20 21 22 23 24 25 26 27 28 29 30 31 32 33 34 35 36 37 38 39 40 41 42 43 44 45 46 47 48 49 50

000
ASUS43 KGRB 232311
RWRGRB

NORTH-CENTRAL AND NORTHEAST WISCONSIN REGIONAL WEATHER ROUNDUP
NATIONAL WEATHER SERVICE GREEN BAY WI
600 PM CDT WED AUG 23 2017

WIZ005-009-010>012-018-019-240000-
NORTH CENTRAL WISCONSIN

CITY           SKY/WX    TMP DP  RH WIND       PRES   REMARKS
IRONWOOD       MOSUNNY   60  40  47 N5        30.08S
MANITOWISH WTR CLOUDY    59  41  50 N5        30.07S
ARBOR VITAE    SUNNY     62  44  51 N13G18    30.06S
EAGLE RIVER    SUNNY     59  40  47 NW8       30.06S
LAND O LAKES   MOSUNNY   58  41  53 N7        30.08S
RHINELANDER    SUNNY     63  42  46 N8        30.06R
PHILLIPS       SUNNY     62  46  55 N3        30.05S
ANTIGO         SUNNY     64  46  51 NW9       30.04S
TOMAHAWK         N/A     64  45  48 NW7       30.05F
MERRILL        MOSUNNY   66  46  48 NW7       30.05S
$$

WIZ013-073-240000-
NORTHEAST WISCONSIN

CITY           SKY/WX    TMP DP  RH WIND       PRES   REMARKS
IRON MOUNTAIN  SUNNY     65  39  38 NW10      30.02R
MARINETTE      SUNNY     69  46  43 N9        30.00S
OCONTO         PTSUNNY   68  52  56 S5        30.00S
$$

WIZ017-030-035>037-045-240000-
CENTRAL WISCONSIN

CITY           SKY/WX    TMP DP  RH WIND       PRES   REMARKS
MEDFORD        MOSUNNY   62  48  59 N6        30.05S
WAUSAU         SUNNY     68  45  43 NW7       30.02S
MOSINEE        PTSUNNY   66  48  52 MISG      30.04S
MARSHFIELD     SUNNY     68  46  45 NW10      30.04S
WISC RAPIDS    MOSUNNY   70  49  47 NW10      30.04S
STEVENS POINT  CLOUDY    68  47  46 NW9       30.03S
WAUPACA        SUNNY     73  46  38 NW6       30.01S
SHAWANO        SUNNY     72  47  40 NW6       30.00S
CLINTONVILLE   MOSUNNY   70  43  37 N9        30.01S
WAUTOMA        SUNNY     71  49  45 NW7       30.02S
$$

WIZ038-039-048-051-240000-
FOX VALLEY

CITY           SKY/WX    TMP DP  RH WIND       PRES   REMARKS
NWS GREEN BAY  CLOUDY    68  54  60 NW6       30.00R
APPLETON       MOSUNNY   72  43  35 W14       30.00R
OSHKOSH        SUNNY     70  51  51 NW7       30.00S
FOND DU LAC    SUNNY     71  48  43 NW6       30.01S
$$

WIZ022-050-052-240000-
EAST CENTRAL WISCONSIN

CITY           SKY/WX    TMP DP  RH WIND       PRES   REMARKS
EPHRAIM        FAIR      65  46  48 N6        30.00S
WASHINGTON ISL FAIR      65  46  50 N7        30.00S
STURGEON BAY   PTSUNNY   65  51  60 NE3       30.01S
MANITOWOC      CLOUDY    65  55  70 E6        30.02R
SHEBOYGAN      MOSUNNY   71  50  47 VRB6      30.00S
$$

LMZ563-521-522-541>543-240000-
LAKESHORE

STATION/POSITION TIME  TEMP    WIND        PRES    VSBY  WAVE
                       AIR SEA DIR/SP/G                  HT/PER
                 (UTC) (F)     (DEG/KT/KT) (MB)    (MI)  (FT/S)
SHEBOYGAN LKSHOR 2300   65     140/ 10/ 11 1015.6F
KEWAUNEE LKSHORE 2242   65     150/  9/ 10 1015.4R
NORTHPORT PIER   2240   67     360/  7/ 10 1015.9R
N MID LAKE BUOY  2250   62 67   70/  6/  8 1016.6R         1/ 4
S GREEN BAY BUOY 2300   68 72  100/  4/  6 1015.8
SISTER BAY LKSHO 2303   68      20/  6/  8   N/A
MENOMINEE LKSHOR 2242   68      10/ 10/ 11 1015.3R
$$




USA.gov is the U.S. government's official web portal to all federal, state and local government web resources and services.